Orbital Elements at Epoch 2459200.5 (2020-Dec-17.0) TDB
Reference: JPL 21 (heliocentric ecliptic J2000)
Element | Value | Uncertainty (1-sigma) | Units |
e | .3057999728970751 | 8.1734e-08 | |
a | 2.53950996174626 | 8.7209e-09 | au |
q | 1.762927884272401 | 2.117e-07 | au |
i | 16.02511588490818 | 6.1306e-06 | deg |
node | 161.4467747361791 | 1.131e-05 | deg |
peri | 235.0059264339309 | 1.69e-05 | deg |
M | 347.469906802242 | 1.5484e-05 | deg |
tp | 2459251.948783279344 (2021-Feb-06.44878328) | 6.3776e-05 | TDB |
period | 1478.166338290109 4.05 | 7.6142e-06 2.085e-08 | d yr |
n | .2435449858886893 | 1.2545e-09 | deg/d |
Q | 3.316092039220118 | 1.1388e-08 | au |
|
| | Orbit Determination Parameters
Additional Information
|